Sedalia, MO

8:42 AM CDT on September 20, 2017 (GMT -0500)
Sedalia Memorial

Weather History for KDMO - June, 2013

Change the Weather History Date:

Wednesday, June 12, 2013

  Actual Average Record
Temperature  
Mean Temperature 85 °F 74 °F  
Max Temperature 94 °F 84 °F 99 °F (1953)
Min Temperature 76 °F 64 °F 48 °F (1992)
Degree Days  
Heating Degree Days 0 0  
Month to date heating degree days 9 4  
Since 1 June heating degree days 9 4  
Since 1 July heating degree days 4745 4569  
Cooling Degree Days 20 9  
Month to date cooling degree days 62 96  
Year to date cooling degree days 210 235  
Since 1 June cooling degree days 62 96  
Growing Degree Days 34 (Base 50)    
Moisture  
Dew Point 71 °F    
Average Humidity 64    
Maximum Humidity 82    
Minimum Humidity 46    
Precipitation  
Precipitation 0.00 in 0.18 in 1.89 in (2002)
Month to date precipitation 0.40 2.34  
Year to date precipitation 23.40 17.49  
Sea Level Pressure  
Sea Level Pressure 29.81 in    
Wind  
Wind Speed 16 mph (SW)    
Max Wind Speed 29 mph    
Max Gust Speed 39 mph    
Visibility 10 miles    
Events      
T = Trace of Precipitation, MM = Missing Value Source: NWS Daily Summary

Daily Weather History Graph

Daily Weather History Graph

Search for Another Location

Airport or City:

Trip Planner

Search our weather history database for the weather conditions in past years. The results will help you decide how hot, cold, wet, or windy it might be!

Date:

Astronomy

Jun. 12, 2013 Rise Set
Actual Time 5:47 AM CDT 8:38 PM CDT
Civil Twilight 5:15 AM CDT 9:09 PM CDT
Nautical Twilight 4:35 AM CDT 9:50 PM CDT
Astronomical Twilight 3:49 AM CDT 10:35 PM CDT
Moon 9:25 AM CDT (6/12) 11:16 PM CDT (6/12)
Length of Visible Light 15h 54m
Length of Day
14h 50m
Waxing Crescent, 14% of the Moon is Illuminated
Jun 12
Waxing Crescent
Jun 16
First Quarter
Jun 23
Full
Jun 29
Last Quarter
Jul 8
New

Hourly Weather History & Observations

Time (CDT) Temp. Heat Index Dew Point Humidity Pressure Visibility Wind Dir Wind Speed Gust Speed Precip Events Conditions
12:53 AM 80.1 °F 82.3 °F 66.9 °F 64% 29.86 in 10.0 mi SSW 11.5 mph - N/A   Clear
1:53 AM 80.1 °F 82.7 °F 68.0 °F 67% 29.84 in 10.0 mi SSW 16.1 mph 23.0 mph N/A   Clear
2:53 AM 79.0 °F - 68.0 °F 69% 29.84 in 10.0 mi SSW 12.7 mph - N/A   Clear
3:53 AM 77.0 °F - 69.1 °F 76% 29.83 in 10.0 mi SSW 16.1 mph - N/A   Clear
4:53 AM 75.9 °F - 69.1 °F 79% 29.83 in 10.0 mi SSW 12.7 mph - N/A   Clear
5:53 AM 75.9 °F - 69.1 °F 79% 29.85 in 10.0 mi SSW 12.7 mph - N/A   Clear
6:53 AM 75.9 °F - 70.0 °F 82% 29.86 in 10.0 mi SSW 13.8 mph - N/A   Clear
7:53 AM 80.1 °F 83.2 °F 70.0 °F 71% 29.87 in 10.0 mi SSW 17.3 mph - N/A   Clear
8:53 AM 82.9 °F 87.5 °F 71.1 °F 67% 29.84 in 10.0 mi SSW 20.7 mph 27.6 mph N/A   Clear
9:53 AM 84.9 °F 90.1 °F 71.1 °F 63% 29.82 in 10.0 mi SSW 17.3 mph 28.8 mph N/A   Clear
10:53 AM 87.1 °F 93.6 °F 72.0 °F 61% 29.81 in 10.0 mi SSW 19.6 mph 31.1 mph N/A   Clear
11:53 AM 90.0 °F 96.9 °F 72.0 °F 55% 29.80 in 10.0 mi SSW 21.9 mph 27.6 mph N/A   Clear
12:53 PM 91.0 °F 97.6 °F 71.1 °F 52% 29.79 in 10.0 mi SSW 24.2 mph 33.4 mph N/A   Clear
1:53 PM 93.0 °F 99.0 °F 70.0 °F 47% 29.78 in 10.0 mi SW 18.4 mph 31.1 mph N/A   Clear
2:53 PM 93.0 °F 99.0 °F 70.0 °F 47% 29.78 in 10.0 mi SW 26.5 mph 34.5 mph N/A   Clear
3:53 PM 91.9 °F 98.4 °F 71.1 °F 50% 29.78 in 10.0 mi WSW 16.1 mph 24.2 mph N/A   Mostly Cloudy
4:53 PM 93.0 °F 100.1 °F 71.1 °F 49% 29.77 in 10.0 mi SW 17.3 mph 27.6 mph N/A   Scattered Clouds
5:53 PM 91.9 °F 99.5 °F 72.0 °F 52% 29.77 in 10.0 mi WSW 11.5 mph 24.2 mph N/A   Scattered Clouds
6:53 PM 90.0 °F 97.9 °F 73.0 °F 57% 29.77 in 10.0 mi SW 11.5 mph - N/A   Mostly Cloudy
7:53 PM 89.1 °F 98.0 °F 73.9 °F 61% 29.77 in 10.0 mi WSW 9.2 mph - N/A   Clear
8:53 PM 86.0 °F 93.8 °F 73.9 °F 67% 29.78 in 10.0 mi WSW 9.2 mph - N/A   Clear
9:53 PM 82.9 °F 89.4 °F 73.9 °F 74% 29.80 in 10.0 mi WSW 6.9 mph - N/A   Clear
10:53 PM 84.9 °F 90.1 °F 71.1 °F 63% 29.83 in 10.0 mi WNW 11.5 mph 20.7 mph N/A   Scattered Clouds
11:53 PM 81.0 °F 82.7 °F 64.9 °F 58% 29.86 in 10.0 mi NNW 15.0 mph 21.9 mph N/A   Clear